EST,Max TemperatureF,Mean TemperatureF,Min TemperatureF,Max Dew PointF,MeanDew PointF,Min DewpointF,Max Humidity, Mean Humidity, Min Humidity, Max Sea Level PressureIn, Mean Sea Level PressureIn, Min Sea Level PressureIn, Max VisibilityMiles, Mean VisibilityMiles, Min VisibilityMiles, Max Wind SpeedMPH, Mean Wind SpeedMPH, Max Gust SpeedMPH,PrecipitationIn, CloudCover, Events, WindDirDegrees
2012-12-1,63,53,43,47,42,36,76,64,52,30.21,30.14,30.06,10,9,6,17,10,26,0.00,4,,192
2012-12-2,61,57,53,56,53,43,93,75,57,30.11,30.05,29.97,10,6,1,22,11,28,0.06,7,Rain,210
2012-12-3,68,63,57,58,56,51,100,84,67,30.10,30.05,29.98,10,5,0,17,9,24,0.01,6,Fog-Rain,194
2012-12-4,62,52,42,54,46,36,93,79,64,30.20,30.06,29.97,10,7,1,16,9,24,0.24,6,Rain,273
2012-12-5,43,35,27,35,28,23,82,71,59,30.40,30.33,30.22,10,10,10,12,6,15,0.00,1,,54
2012-12-6,46,35,24,37,30,20,81,71,60,30.28,30.10,29.97,10,10,10,13,7,,0.00,2,,159
2012-12-7,48,46,43,45,43,38,93,85,76,29.98,29.90,29.82,10,4,1,16,5,23,0.48,8,Rain,145
2012-12-8,47,47,46,46,42,36,100,89,82,30.06,29.92,29.81,10,6,1,14,7,18,0.03,8,Rain,305
2012-12-9,54,47,39,52,43,35,96,91,85,30.07,29.85,29.67,10,3,1,21,10,25,0.45,8,Rain,130
2012-12-10,49,40,30,45,32,26,93,86,79,29.94,29.77,29.69,10,7,2,21,12,26,0.01,8,Snow,287
2012-12-11,33,31,28,27,23,20,85,73,61,30.23,30.09,29.94,10,9,3,13,9,25,T,5,Snow,237
2012-12-12,42,34,25,25,22,20,81,63,45,30.39,30.34,30.24,10,10,7,12,5,14,0.00,0,,196
2012-12-13,45,35,24,25,23,19,81,61,41,30.40,30.33,30.22,10,10,8,16,7,22,0.00,0,,192
2012-12-14,50,42,33,29,26,22,64,53,42,30.27,30.21,30.14,10,10,10,14,6,20,0.00,0,,205
2012-12-15,53,46,39,48,38,25,83,66,49,30.12,29.87,29.70,10,9,3,24,11,33,0.11,6,Rain,182
2012-12-16,56,50,43,49,45,39,89,75,61,29.73,29.68,29.62,10,10,5,20,8,26,0.00,6,,234
2012-12-17,43,41,38,39,38,35,92,87,82,29.74,29.67,29.60,8,4,1,10,5,13,0.09,8,Rain,17
2012-12-18,44,40,36,36,33,30,92,81,70,29.84,29.75,29.65,10,6,3,18,10,29,0.02,7,Rain,250
2012-12-19,44,40,36,36,34,32,89,77,65,30.06,29.96,29.76,10,6,4,22,8,26,0.01,5,Rain,257
2012-12-20,53,42,31,46,35,27,93,82,70,29.87,29.36,29.16,10,6,0,36,18,48,0.59,8,Fog-Rain-Snow-Thunderstorm,196
2012-12-21,32,29,26,28,24,19,92,82,72,30.10,29.67,29.37,10,5,0,36,24,69,0.04,8,Fog-Snow,281
2012-12-22,30,26,21,20,18,16,84,71,58,30.25,30.16,30.05,10,10,9,20,10,41,0.00,4,,242
2012-12-23,37,32,26,25,21,17,85,72,59,30.01,29.97,29.92,10,9,5,13,5,20,0.00,0,,235
2012-12-24,38,32,26,34,28,24,92,84,75,30.02,29.86,29.77,7,4,1,17,8,22,0.01,6,Rain,309
2012-12-25,33,31,29,27,26,23,85,76,66,30.23,30.14,30.00,10,7,4,22,11,26,0.00,8,,28
2012-12-26,32,29,26,27,25,19,92,82,72,30.06,29.80,29.67,10,4,0,31,21,38,0.14,8,Fog-Rain-Snow,31
2012-12-27,31,25,18,22,20,16,91,80,69,30.19,30.11,29.97,10,9,0,17,5,20,0.00,5,Fog,314
2012-12-28,31,24,16,27,22,12,92,82,72,30.17,30.02,29.85,10,4,0,12,5,14,0.12,6,Fog-Snow,125
2012-12-29,31,28,24,27,24,19,92,85,78,30.21,29.89,29.77,10,2,1,23,11,30,0.15,8,Snow,319
2012-12-30,26,21,16,18,15,12,84,76,68,30.43,30.34,30.21,9,8,6,21,10,67,0.00,3,,239
2012-12-31,35,31,26,29,25,19,85,74,63,30.25,30.11,30.04,10,6,0,20,11,25,0.02,6,Fog-Snow,234